COSMOS 1814

Satellite information

Favourite Embed

Satellite Type and Status

PAYLOADIN ORBIT

Key statistics

Satellite COSMOS 1814 at a glance.

Uptime

14153

Days in orbit

Revolutions

≈ 14.4

Per day

Orbit

LEO

Low Earth Orbit

Inclination

74.1

Latest

Satellite identification and parameters

Extended collection of information and parameters for COSMOS 1814.

Object identification

Identified? True

Debris? False

Object name: COSMOS 1814

International designator: 1987-006A

Object number (NORAD): 17303

Object ID (CCSDS): 17303

Country: COMMONWEALTH OF INDEPENDENT STATES (CIS)

Current information (Y/N): Y

RCS size: LARGE

Orbital parameters

Period: 100.285 minutes

Inclination: 74.0566 deg

SMA: 7150.204 km

Apoapsis: 788.996 km

Periapsis: 755.142 km

RAAN: 336.452 deg

Eccentricy: 0.00236731

Argument of periapsis: 136.6802 deg

Mean anomaly: 223.6217 deg

Mean motion: 14.35902989 rev/day

Mean motion (dot): 0.00000265 rev/day2

B* drag term: 0.000099939993 1/REarth

Two-line elements (TLE)

Creation date: Oct. 21, 2025, 3:26 a.m.

Reference frame: TEME

Reference center: EARTH

Epoch: Oct. 20, 2025, 8:17 p.m. UTC

TLE line 0: 0 COSMOS 1814

TLE line 1: 1 17303U 87006A 25293.84522828 .00000265 00000-0 99940-4 0 9993

TLE line 2: 2 17303 74.0566 336.4520 0023673 136.6802 223.6217 14.35902989 27882

Live tracking on map

Real-time ground track for satellite COSMOS 1814.

In-orbit conjunctions

A list of the most updated potential collisions computed for object COSMOS 1814.

Target Orbit TCA Probability of collision Miss distance Type
DMSP 5D-2 F13 DEB SSO 2025-09-17 00:54:35 0.0001602234 540.0 (m) DEBRIS
NOAA 16 DEB SSO 2025-09-01 23:00:56 0.0001979036 85.0 (m) DEBRIS
TITAN 3C TRANSTAGE DEB LEO 2025-06-06 22:03:47 0.001828779 313.0 (m) DEBRIS
METEOR 2-6 DEB LEO 2025-05-12 13:59:52 0.000110492 402.0 (m) DEBRIS
FENGYUN 1C DEB SSO 2025-04-22 21:18:19 0.0004007316 174.0 (m) DEBRIS

Associated space launch

Military communications satellite

COSMOS 1814 was lifted into orbit during the mission ‘Kosmos-3M | Strela-2M 41’, on board a Kosmos-3M space rocket.

The launch took place on Jan. 21, 1987, 9:10 a.m. from 132/2.

For more information about the launch, click the button.

Launch to space Kosmos-3M | Strela-2M 41
Kosmos-3M | Strela-2M 41

Agency: N/A

Status: Launch Successful

Launch date: Jan. 21, 1987, 9:10 a.m. UTC

Rocket: Kosmos-3M

Launch pad: 132/2

Location: Plesetsk Cosmodrome, Russian Federation

...

Latest news about this satellite

There are no fresh news available about this satellite. Check back as we update our databases every day.


Newsletter sign-up

Weekly statistics, charts and insights to help you stay on top of the space industry.